FREGAT R/B, 40891

Orbit data source: Space-Track

FREGAT R/B, 40891 is space debris originally from a launch on Fri, 11 Sep 2015 UTC launched from the French Guiana (FRGUI). Debris objects in space refer to the collection of defunct objects orbiting the Earth. Examples of debris include non-operational satellites, rocket bodies, and fragments generated from explosions, collisions, or faulty payload assembly.

Loading next visibility...
Identifier
40891, 2015-045C
Orbit
Active
Country
Flag of CISCIS
Related business
Manufacturer
Lavochkin
Mission
Spacecraft
Bus & Motor
FREGAT, Unknown motor
Mass
1,050 kg wet, 1,050 kg dry
Launch date (UTC)
2015-09-11 (10 years ago)
Launch vehicle
Unknown
Launch site
French Guiana (FRGUI)
Object type
Payload
Rocket body
Debris
Shape & HBR
Irr, 1.6 m
Radar Cross Section
11.055 m²

Expand to show TLE details & history
Last TLE update: 4 days ago

TLE from 4 days ago
0 FREGAT R/B
1 40891U 15045C   25350.45004912  .00000043  00000-0  00000-0 0  9994
2 40891  54.8627 229.7838 0027034 231.6443 128.2067  1.67827809 62938
Epoch: 2025-12-16T10:48Z
TLE epoch observation values (Epoch: 2025-12-16T10:48:04.243Z)
Latitude
Longitude
-17.55974°
Altitude
23,582.929 km
Speed
3.644 km/s
True Right ascension
15h 19m 10s
True Declination
0° 00' 00"
Sunlit
Object was in daylight at epoch
Visualization orbit readout
Latitude
Unknown
Longitude
Unknown
Altitude
Unknown
Speed
Unknown
Apparent Right ascension
Unknown
Apparent Declination
Unknown
Sunlit
N/A
Visualization observer readout
Local Sidereal Time
03:41:22
Azimuth
Unknown
Elevation
Unknown
Doppler factor
Unknown
Orbital elements
Apogee altitude
23,613.39 km
Perigee altitude
23,451.669 km
Semi-major axis
29,910.667 km
Eccentricity
0.0027
Inclination
54.8627°
RAAN
229.7838°
Arg. of periapsis
231.6443°
True anomaly
128.44962°
Mean anomaly
128.2067°
Eccentric anomaly
128.32821°
Mean motion
0.41957 °/min
Orbital period
858.02 mins
BSTAR
0
Loading maneuver chart data...
Computing Atmospheric mass density...
Loading historical data...
Loading historical data...
Loading historical data...
Loading historical data...
Loading historical data...
Loading historical data...
Loading historical data...
Other satellites on launch #45 in the year 2015 (2015-09-11 UTC)

Documentation

Showing up to 5 results
|